Hourly Data Report for November 27, 2021

MOUNT FOREST (AUT)
ONTARIO
Current Station Operator: ECCC - MSC

43°59'00.000" N
80°45'00.000" W
414.50 m
6145504
71631
WLS

Download Data

Hourly Data (November 2021)
Hourly Data Report for November 27, 2021
TIME
LST
Temp Definition
°C
Dew Point Definition
°C
Rel Hum Definition
%
Precip. Amount Definition
mm

Wind Dir Definition
10's deg

Wind Spd Definition
km/h
Visibility Definition
km
Stn Press Definition
kPa
Hmdx Definition


Wind Chill Definition


Weather Definition


00:00 -5.3 -7.4 85 0.0 30 8   96.42   -9 LegendNANA
01:00 -5.2 -7.0 87 0.0 32 9   96.41   -9 LegendNANA
02:00 -5.1 -6.8 88 0.0 32 7   96.45   -8 LegendNANA
03:00 -5.1 -6.8 88 0.0 30 6   96.46   -8 LegendNANA
04:00 -4.9 -6.8 86 0.0 28 6   96.45   -8 LegendNANA
05:00 -4.9 -7.0 85 0.0 29 4   96.44   -7 LegendNANA
06:00 -4.8 -7.0 85 0.0 28 4   96.48   -7 LegendNANA
07:00 -4.7 -7.3 82 0.0 26 2   96.48   -6 LegendNANA
08:00 -4.5 -6.7 85 0.0 23 6   96.50   -7 LegendNANA
09:00 -3.8 -5.9 86 0.0 23 6   96.50   -6 LegendNANA
10:00 -3.1 -6.5 77 0.0 25 11   96.50   -7 LegendNANA
11:00 -2.6 -7.8 68 0.0 27 12   96.47   -7 LegendNANA
12:00 -2.2 -8.2 63 0.0 27 11   96.38   -6 LegendNANA
13:00 -2.0 -8.4 62 0.0 28 11   96.35   -6 LegendNANA
14:00 -2.2 -7.9 65 0.0 30 9   96.28   -6 LegendNANA
15:00 -2.3 -7.5 67 0.0 30 9   96.27   -6 LegendNANA
16:00 -2.2 -6.8 71 0.0 29 7   96.27   -5 LegendNANA
17:00 -2.5 -6.4 75 0.0 25 7   96.24   -5 LegendNANA
18:00 -2.7 -6.0 78 0.0 22 8   96.22   -6 LegendNANA
19:00 -3.5 -5.7 85 0.0 21 10   96.17   -7 LegendNANA
20:00 -3.9 -5.6 88 0.1 19 6   96.14   -7 LegendNANA
21:00 -3.8 -5.3 89 0.0 20 5   96.12   -6 LegendNANA
22:00 -3.8 -5.2 89 0.0 10 3   96.07   -5 LegendNANA
23:00 -3.8 -4.8 92 0.4 0 1   96.02   -4 LegendNANA

Notes on Data Quality.

Legend

  • E = Estimated
  • M = Missing
  • NA = Not Available*
  • [empty] = Indicates an unobserved value
Date modified: